Location: G�ndlingen
(48.0142°N, 7.6396°E)
Time: 17:39:46
(UTC+00:00)

Cosmos 1340 - Pass Details

Date: 05 July 2020
Orbit: 502 x 505 km, 81.2° (Epoch: 13 August)

Event Time Altitude Azimuth Distance (km) Brightness Sun altitude
Exits shadow 23:34:24 49° 226° (SW) 653 2.9 -19.3°
Maximum altitude 23:35:12 65° 283° (WNW) 557 2.8 -19.3°
Drops below altitude 10° 23:38:57 10° 6° (N) 1,724 6.6 -19.3°
Sets 23:41:07 0° 9° (N) 2,614 7.9 -19.3°
